Вернуться в каталог

FENGYUN 1C DEB

АктивенPO
NORAD 30314·DEBRIS·🇨🇳 China

Запущен May 10, 1999 с Taiyuan Satellite Launch Center

Loading…

Ближайшие Пролёты (ближайшие 24 часа)

TLE

СвежийSource: Space-Track

Эпоха: Sep 14, 2026, 06:49 UTC

1 30314U 99025AAB 26257.28465219  .00000883  00000-0  55319-3 0  9990
2 30314  98.3990  71.3375 0141918 299.4663  59.2408 14.02116128999696

Отслеживайте FENGYUN 1C DEB в реальном времени с AllMySat

Download on the App Store